International Virtual Aviation Organisation

Russian Federation and Kazakhstan MCD

 

Карточка аэропорта ULPB

Внимание!
Информация на этой странице в стадии наполнения.
Если вы не увидели какой-то информации, или заметили неточность - пожалуйста сообщите нам!
Спасибо!
Команда RU-STAFF
Название аэропортаБесовец
Название аэропорта (англ.)Besovets
Превышение151 ft. (46 m.)
Координаты61°53.07', 34°9.258'
Высота перехода900
Эшелон перехода070
Коды ответчика1000
Зона ОрВДСанкт-Петербург РПИ (ULLL)
Данные METARULPB 091400Z 11002MPS 030V190 CAVOK 22/15 Q1015 R19/09//60 NOSIG RMK QFE757/1010
Проноз погоды (TAF)NODATA
NOTAMshow/hide NOTAM
AWOS   TABLE

Информация о ВПП


Диспетчерские позиции

Позывной Наименование органа УВД Частота
ULPB_TWRПетрозаводск-Вышка128.000



Спутниковое изображение